Terminal Aerodrome Forecast
Issued by NWS Pittsburgh, PA

Current Version | Previous Version | Graphics & Text | Print | Product List | Glossary On
Versions: 1 2 3 4 5 6 7 8 9 10 11 12 13 14 15 16 17 18 19 20 21 22 23 24 25 26
631
FTUS41 KPBZ 242330
TAFPIT
TAF
KPIT 242330Z 2500/2606 23008KT P6SM BKN250
     FM250800 23008KT P6SM BKN050
     FM252200 VRB03KT P6SM BKN040=

USA.gov is the U.S. government's official web portal to all federal, state and local government web resources and services.